CAPE
0 0 0 0 0 0 0 0 0 0 0 1 0 0 0 0 0 0 0 0 0 0 0 0 0 0 0 0 0 0 0 0 0 0 0 0 0 0 0 0 0 0 0 0 0
0 0 0 0 0 0 0 0 0 0 0 0 0 0 0 0 0 0 0 0 0 0 0 0 0 0 0 0 0 0 0 0 0 0 0 0 0 0 0 0 0 0 0 0 0
0 0 0 0 0 0 0 0 0 0 0 0 0 0 0 0 0 0 0 0 0 0 0 0 0 0 0 0 0 0 0 0 0 0 0 0 0 0 0 0 0 0 0 0 0
1 1 0 0 0 0 0 0 0 0 0 0 0 0 0 0 0 0 0 0 0 0 0 0 0 0 0 0 0 0 0 0 0 0 0 0 0 0 0 0 0 0 0 0 0
1 0 0 0 0 0 0 0 0 0 0 0 0 0 0 0 0 0 0 0 0 0 0 0 0 0 0 0 0 0 0 0 0 0 0 0 0 0 0 0 0 0 0 0 0
0 0 0 0 0 0 0 0 0 0 0 0 0 0 0 0 0 0 0 0 0 0 0 0 0 0 0 0 0 0 0 0 0 0 0 0 0 0 0 0 0 0 0 0 0
0 0 0 0 0 0 0 0 0 0 0 0 0 0 0 0 0 0 0 0 0 0 0 0 0 0 0 0 0 0 0 0 0 0 0 0 0 0 0 0 0 0 0 0 0
0 0 0 0 0 0 0 0 0 0 0 0 0 0 0 0 0 0 0 0 0 0 0 0 0 0 0 0 0 0 0 0 0 0 0 0 0 0 0 0 0 0 0 0 0
0 0 0 0 0 0 0 0 0 0 0 0 0 0 0 0 0 0 0 0 0 0 0 0 0 0 0 0 0 0 0 0 0 0 0 0 0 0 0 0 0 0 0 0 0
0 0 0 0 0 0 0 0 0 0 0 0 0 0 0 0 0 0 0 0 0 0 0 0 0 0 0 0 0 0 0 0 0 0 0 0 0 0 0 0 0 0 0 0 0
0 0 0 0 0 0 0 0 0 0 0 0 0 0 0 0 0 0 0 0 0 0 0 0 0 0 0 0 0 0 0 0 0 0 0 0 0 0 0 0 0 0 0 0 0
0 0 0 0 0 0 0 0 0 0 0 0 0 0 0 0 0 0 0 0 0 0 0 0 0 0 0 0 0 0 0 0 0 0 0 0 0 0 0 0 0 0 0 0 0
0 0 0 0 0 0 0 0 0 0 0 0 0 0 0 0 0 0 0 0 0 0 0 0 0 0 0 0 0 0 0 0 0 0 0 0 0 0 0 0 0 0 0 0 0
0 0 0 0 0 0 0 0 0 0 0 0 0 0 0 0 0 0 0 0 0 0 0 0 0 0 0 0 0 0 0 0 0 0 0 0 0 0 0 0 0 0 0 0 0
0 0 0 0 0 0 0 0 0 0 0 0 0 0 0 0 0 0 0 0 0 0 0 0 0 0 0 0 0 0 0 0 0 0 0 0 0 0 0 0 0 0 0 0 0
0 0 0 0 0 0 0 0 0 0 0 0 0 0 0 0 0 0 0 0 0 0 0 0 0 0 0 0 0 0 0 0 0 0 0 0 0 0 0 0 0 0 0 0 0
0 0 0 0 0 0 0 0 0 0 0 0 0 0 0 0 0 0 0 0 0 0 0 0 0 0 0 0 0 0 0 0 0 0 0 0 0 0 0 0 0 0 0 0 0
0 0 0 0 0 0 0 0 0 0 0 0 0 0 0 0 0 0 0 0 0 0 0 0 0 0 0 0 0 0 0 0 0 0 0 0 0 0 0 0 0 0 0 0 0
0 0 0 0 0 0 0 0 0 0 0 0 0 0 0 0 0 0 0 0 0 0 0 0 0 0 0 0 0 0 0 0 0 0 0 0 0 0 0 0 0 0 0 0 0
0 0 0 0 0 0 0 0 0 0 0 0 0 0 0 0 0 0 0 0 0 0 0 0 0 0 0 0 0 0 0 0 0 0 0 0 0 0 0 0 0 0 0 0 0
0 0 0 0 0 0 0 0 0 0 0 0 0 0 0 0 0 0 0 0 0 0 0 0 0 0 0 0 0 0 0 0 0 0 1 0 0 0 0 0 0 0 0 0 0
0 0 0 0 0 0 0 0 0 0 0 0 0 0 0 0 0 0 0 0 0 0 0 0 0 0 0 0 0 0 0 0 0 0 0 0 0 0 0 0 0 0 0 0 0
0 0 0 0 0 0 0 0 0 0 0 0 0 0 0 0 0 0 0 0 0 0 0 0 0 0 0 0 0 0 0 0 0 0 0 14 1 0 0 0 0 0 0 0 0
0 0 0 0 0 0 0 0 0 0 0 0 0 0 0 0 0 0 0 0 0 0 0 0 0 0 0 0 0 14 4 0 1 12 0 1 0 0 0 0 0 0 0 0 0
0 0 0 0 0 0 0 0 0 0 0 0 0 0 0 0 0 0 0 0 0 0 0 0 0 0 0 0 1 0 0 0 0 0 3 0 0 0 0 0 0 0 0 0 0
0 0 0 0 0 0 0 0 0 0 0 0 0 0 0 0 0 0 0 0 0 0 0 0 1 0 0 0 0 0 0 0 0 0 0 0 0 0 0 0 0 0 0 0 0
0 0 0 0 0 0 0 0 0 0 0 0 0 0 0 0 0 0 0 0 0 0 0 0 0 0 0 0 0 0 0 0 0 0 0 0 0 0 0 0 0 0 0 0 0
CIN
0 0 0 0 0 0 0 0 0 0 0 0 0 0 0 0 0 0 0 0 0 0 0 0 0 0 0 0 0 0 0 0 0 0 0 0 0 0 0 0 0 0 0 0 0
0 0 0 0 0 0 0 0 0 0 0 0 0 0 0 0 0 0 0 0 0 0 0 0 0 0 0 0 0 0 0 0 0 0 0 0 0 0 0 0 0 0 0 0 0
0 0 0 0 0 0 0 0 0 0 0 0 0 0 0 0 0 0 0 0 0 0 0 0 0 0 0 0 0 0 0 0 0 0 0 0 0 0 0 0 0 0 0 0 0
0 0 0 0 0 0 0 0 0 0 0 0 0 0 0 0 0 0 0 0 0 0 0 0 0 0 0 0 0 0 0 0 0 0 0 0 0 0 0 0 0 0 0 0 0
0 0 0 0 0 0 0 0 0 0 0 0 0 0 0 0 0 0 0 0 0 0 0 0 0 0 0 0 0 0 0 0 0 0 0 0 0 0 0 0 0 0 0 0 0
0 0 0 0 0 0 0 0 0 0 0 0 0 0 0 0 0 0 0 0 0 0 0 0 0 0 0 0 0 0 0 0 0 0 0 0 0 0 0 0 0 0 0 0 0
0 0 0 0 0 0 0 0 0 0 0 0 0 0 0 0 0 0 0 0 0 0 0 0 0 0 0 0 0 0 0 0 0 0 0 0 0 0 0 0 0 0 0 0 0
0 0 0 0 0 0 0 0 0 0 0 0 0 0 0 0 0 0 0 0 0 0 0 0 0 0 0 0 0 0 0 0 0 0 0 0 0 0 0 0 0 0 0 0 0
0 0 0 0 0 0 0 0 0 0 0 0 0 0 0 0 0 0 0 0 0 0 0 0 0 0 0 0 0 0 0 0 0 0 0 0 0 0 0 0 0 0 0 0 0
0 0 0 0 0 0 0 0 0 0 0 0 0 0 0 0 0 0 0 0 0 0 0 0 0 0 0 0 0 0 0 0 0 0 0 0 0 0 0 0 0 0 0 0 0
0 0 0 0 0 0 0 0 0 0 0 0 0 0 0 0 0 0 0 0 0 0 0 0 0 0 0 0 0 0 0 0 0 0 0 0 0 0 0 0 0 0 0 0 0
0 0 0 0 0 0 0 0 0 0 0 0 0 0 0 0 0 0 0 0 0 0 0 0 0 0 0 0 0 0 0 0 0 0 0 0 0 0 0 0 0 0 0 0 0
0 0 0 0 0 0 0 0 0 0 0 0 0 0 0 0 0 0 0 0 0 0 0 0 0 0 0 0 0 0 0 0 0 0 0 0 0 0 0 0 0 0 0 0 0
0 0 0 0 0 0 0 0 0 0 0 0 0 0 0 0 0 0 0 0 0 0 0 0 0 0 0 0 0 0 0 0 0 0 0 0 0 0 0 0 0 0 0 0 0
0 0 0 0 0 0 0 0 0 0 0 0 0 0 0 0 0 0 0 0 0 0 0 0 0 0 0 0 0 0 0 0 0 0 0 0 0 0 0 0 0 0 0 0 0
0 0 0 0 0 0 0 0 0 0 0 0 0 0 0 0 0 0 0 0 0 0 0 0 0 0 0 0 0 0 0 0 0 0 0 0 0 0 0 0 0 0 0 0 0
0 0 0 0 0 0 0 0 0 0 0 0 0 0 0 0 0 0 0 0 0 0 0 0 0 0 0 0 0 0 0 0 0 0 0 0 0 0 0 0 0 0 0 0 0
0 0 0 0 0 0 0 0 0 0 0 0 0 0 0 0 0 0 0 0 0 0 0 0 0 0 0 0 0 0 0 0 0 0 0 0 0 0 0 0 0 0 0 0 0
0 0 0 0 0 0 0 0 0 0 0 0 0 0 0 0 0 0 0 0 0 0 0 0 0 0 0 0 0 0 0 0 0 0 0 0 0 0 0 0 0 0 0 0 0
0 0 0 0 0 0 0 0 0 0 0 0 0 0 0 0 0 0 0 0 0 0 0 0 0 0 0 0 0 0 0 0 0 0 0 0 0 0 0 0 0 0 0 0 0
0 0 0 0 0 0 0 0 0 0 0 0 0 0 0 0 0 0 0 0 0 0 0 0 0 0 0 0 0 0 0 0 0 0 -0 0 0 0 0 0 0 0 0 0 0
0 0 0 0 0 0 0 0 0 0 0 0 0 0 0 0 0 0 0 0 0 0 0 0 0 0 0 0 0 0 0 0 0 0 0 -0 0 0 0 0 0 0 0 0 0
0 0 0 0 0 0 0 0 0 0 0 0 0 0 0 0 0 0 0 0 0 0 0 0 0 0 0 0 0 0 0 0 0 0 0 0 0 0 0 0 0 0 0 0 0
0 0 0 0 0 0 0 0 0 0 0 0 0 0 0 0 0 0 0 0 0 0 0 0 0 0 0 0 0 -1 -2 0 -1 -0 0 0 0 0 0 0 0 0 0 0 0
0 0 0 0 0 0 0 0 0 0 0 0 0 0 0 0 0 0 0 0 0 0 0 0 0 0 0 0 -0 0 0 0 0 0 -0 0 0 0 0 0 0 0 0 0 0
0 0 0 0 0 0 0 0 0 0 0 0 0 0 0 0 0 0 0 0 0 0 0 0 0 0 0 0 0 0 0 0 0 0 0 0 0 0 0 0 0 0 0 0 0
0 0 0 0 0 0 0 0 0 0 0 0 0 0 0 0 0 0 0 0 0 0 0 0 0 0 0 0 0 0 0 0 0 0 0 0 0 0 0 0 0 0 0 0 0
Wind_Speed
15 17 18 18 19 18 18 18 17 16 13 12 10 9 9 10 4 3 7 3 5 11 6 2 5 5 3 4 3 2 4 0 1 2 2 4 5 2 2 2 4 4 1 3 7
15 16 18 19 19 18 18 17 17 15 12 10 9 7 7 7 2 9 3 6 7 9 4 6 5 5 3 3 3 4 2 2 2 1 2 4 3 5 3 7 4 5 5 4 6
16 18 19 19 19 19 18 17 17 15 11 8 7 6 7 3 5 4 9 7 7 4 2 1 0 2 4 2 3 1 2 1 1 2 4 3 5 1 0 2 2 7 11 13 10
17 18 19 19 19 19 18 18 17 14 7 5 5 5 4 1 3 4 12 10 8 4 2 4 5 4 3 3 3 2 2 1 2 2 4 3 2 3 2 2 8 8 8 7 12
18 18 18 19 20 19 19 17 15 11 4 3 3 4 1 8 3 6 12 9 2 3 5 3 6 2 3 2 3 3 3 5 5 6 4 3 4 1 2 6 8 10 12 12 12
17 17 19 20 20 18 18 16 11 6 3 3 3 2 4 8 4 7 8 4 5 5 5 5 3 1 3 2 2 3 4 6 4 5 2 2 2 3 2 10 11 15 14 15 16
17 17 18 19 20 19 18 13 7 4 2 3 4 3 13 2 4 6 8 3 4 2 3 2 1 3 2 1 3 1 5 5 5 6 3 2 1 2 4 7 14 13 13 15 15
18 19 19 21 21 20 19 9 7 3 2 3 3 4 5 2 3 6 7 2 5 3 2 2 2 4 4 2 4 4 4 4 3 8 5 4 4 5 7 12 14 13 12 13 15
18 20 20 20 21 21 17 6 6 2 5 3 4 7 3 7 6 6 4 4 4 3 6 4 5 4 6 4 3 8 4 4 9 4 8 10 9 9 13 11 8 9 10 11 11
18 18 19 19 20 21 11 2 8 5 7 2 3 5 6 4 6 6 4 4 5 2 5 8 6 5 5 8 5 7 4 3 6 6 9 10 10 7 11 9 9 10 10 10 10
18 17 17 17 16 21 7 5 8 9 12 5 1 3 4 7 3 8 4 5 4 9 5 5 9 5 3 1 2 3 3 6 5 4 12 5 15 8 6 10 9 8 8 8 8
17 18 17 16 9 15 6 9 2 2 5 2 1 3 3 2 5 15 7 6 7 4 6 7 4 4 2 4 3 3 4 5 10 6 10 12 17 4 8 4 5 6 7 7 6
19 19 18 17 1 6 9 5 6 3 5 4 2 3 4 5 5 10 8 3 6 5 5 3 1 3 2 3 4 2 2 4 7 6 7 9 6 3 4 3 4 6 2 4 6
18 17 18 14 7 2 4 6 3 3 6 10 7 6 6 3 6 4 6 2 6 3 3 4 3 3 4 3 1 2 2 5 9 12 9 7 9 4 1 2 2 5 5 6 7
18 16 12 14 4 5 6 6 3 2 5 7 5 3 5 8 5 8 5 7 3 4 4 2 5 5 5 0 3 4 7 6 15 12 4 5 3 2 2 1 3 3 4 5 6
15 14 7 6 4 4 5 0 3 6 3 4 6 7 6 8 7 7 10 9 2 3 5 1 3 4 3 3 3 7 6 8 3 2 2 6 4 4 2 2 5 3 6 8 10
15 9 6 2 4 6 3 2 6 7 3 5 4 5 4 7 7 8 5 10 6 7 7 7 3 3 4 5 4 9 8 6 5 2 3 4 6 8 3 3 4 7 10 10 10
13 6 5 4 4 3 3 5 6 1 1 2 4 2 5 7 4 8 4 5 7 6 3 6 5 5 7 3 4 3 2 1 7 6 11 12 9 1 2 4 6 8 11 11 12
5 4 3 6 6 1 5 7 2 2 1 4 1 5 4 4 5 5 5 3 3 6 4 7 5 4 4 3 1 2 1 1 6 5 5 4 6 4 1 5 9 14 12 16 17
3 3 3 12 6 5 8 4 2 3 4 1 3 3 5 7 6 6 4 4 5 6 0 3 8 3 5 1 2 3 0 4 0 4 6 3 11 11 10 13 19 16 17 19 19
4 4 4 13 3 8 6 3 4 3 2 5 2 3 3 3 2 4 4 3 3 4 4 2 3 4 3 2 7 6 2 2 2 2 4 7 10 3 16 17 13 19 19 17 17
3 3 5 7 8 3 4 3 3 5 7 6 5 4 2 2 2 3 3 3 4 4 2 3 0 5 7 6 3 1 1 4 3 5 5 6 17 13 10 10 17 21 16 17 16
3 2 4 4 5 3 3 5 5 6 5 5 4 5 3 2 2 1 1 5 4 4 3 3 1 7 6 2 2 5 0 1 2 2 16 11 13 8 20 24 19 16 17 15 13
4 4 6 7 2 6 5 2 4 4 3 4 3 4 4 3 4 1 2 0 5 2 9 4 2 7 8 10 5 13 10 8 7 8 14 16 24 25 19 19 19 17 15 12 9
4 2 3 4 6 5 4 2 3 3 3 5 4 5 3 3 4 3 1 4 5 6 2 3 5 4 6 13 12 17 21 21 11 18 10 21 19 22 19 18 18 12 10 10 10
5 5 3 3 2 4 4 0 3 2 2 2 5 3 2 3 2 5 2 1 5 5 3 3 5 9 16 11 15 18 20 17 17 17 16 20 22 17 14 10 8 9 8 9 11
1 2 6 2 2 4 2 4 3 3 5 5 3 2 1 1 1 6 6 4 3 2 0 2 2 1 6 5 10 8 6 6 6 6 8 7 11 10 13 14 13 9 9 11 11
Wind_Direction
2 358 353 349 343 337 333 332 332 334 332 330 335 343 345 338 327 14 42 282 319 329 346 319 39 6 42 66 59 115 62 74 246 160 323 1 15 38 326 354 343 330 236 316 318
2 356 350 344 338 334 329 328 332 332 330 328 332 341 338 336 91 60 310 320 329 350 35 41 11 2 54 46 32 71 92 217 218 247 322 332 9 352 11 350 342 341 342 345 356
359 353 347 341 336 332 329 329 333 332 331 332 332 331 332 329 69 346 330 336 334 6 87 103 45 50 66 20 4 127 125 192 13 341 7 332 316 48 95 10 319 318 321 332 339
358 352 345 339 335 330 329 333 334 335 343 351 336 327 327 10 89 293 334 336 334 332 35 33 27 43 65 42 341 23 35 279 295 23 332 288 312 303 64 358 300 311 309 327 340
356 350 343 339 335 331 331 333 333 340 11 25 354 336 295 50 38 316 332 338 4 47 50 56 49 60 51 343 351 45 336 317 312 304 278 308 253 249 30 332 347 42 45 30 29
353 351 345 339 332 331 334 335 336 350 31 48 22 335 64 75 302 329 328 359 22 39 25 44 96 127 92 43 64 301 287 297 300 326 7 10 354 162 210 335 49 49 55 50 49
353 352 347 340 331 335 340 341 345 10 24 21 15 91 65 107 328 330 9 3 352 40 61 44 113 83 144 38 322 332 338 2 18 344 35 309 155 147 37 355 34 54 64 59 54
353 353 348 344 332 338 341 343 345 12 332 348 355 73 94 310 289 12 345 346 3 35 58 29 83 93 49 322 19 42 56 18 358 355 24 23 296 293 3 11 25 50 61 62 52
354 350 347 345 332 339 340 340 348 294 343 335 51 91 59 330 17 320 356 344 312 12 24 67 58 64 20 22 22 19 359 352 325 47 5 38 281 295 324 13 55 83 71 61 52
348 342 343 345 333 342 349 355 348 46 357 22 70 56 5 316 302 329 312 359 35 6 19 34 47 60 28 27 6 326 333 305 277 320 359 303 283 301 1 74 82 78 65 56 49
340 338 341 348 340 352 23 13 18 2 39 73 332 107 323 299 285 345 358 359 27 55 28 20 60 49 340 3 234 250 248 275 280 318 343 289 294 318 46 66 70 63 56 47 33
342 341 344 349 345 1 40 70 111 270 72 74 293 327 254 308 14 354 15 57 44 43 351 27 83 340 328 34 6 325 324 333 287 300 323 293 299 105 59 69 89 81 46 33 22
346 345 344 342 64 37 69 67 303 170 89 9 30 21 328 27 45 341 21 39 48 32 32 91 67 346 58 73 17 100 97 272 266 307 260 302 268 161 90 102 85 50 47 19 359
344 346 346 337 49 329 49 337 322 167 84 336 351 8 359 355 62 349 10 37 29 31 36 82 351 29 39 85 339 291 345 286 301 330 309 21 291 131 38 18 26 19 4 351 346
343 343 353 32 134 50 313 336 106 54 71 339 346 308 352 75 291 358 6 16 57 338 36 330 12 35 51 218 342 288 335 281 289 279 311 15 255 301 289 227 289 333 332 319 323
346 343 4 22 38 111 320 343 48 46 89 351 357 358 23 14 15 321 16 26 36 64 16 57 319 45 338 328 11 305 326 308 53 97 252 114 358 269 261 314 308 311 301 320 326
344 342 50 63 311 329 338 70 43 85 331 336 338 19 78 352 16 21 54 37 27 4 14 344 9 1 24 358 7 23 8 337 322 343 321 184 325 264 318 323 305 325 312 311 305
340 355 2 100 294 310 97 48 74 147 5 324 8 47 66 8 32 5 54 34 19 21 5 1 347 18 334 37 316 4 60 221 292 308 301 310 251 230 291 309 306 293 289 294 293
1 356 24 330 337 51 71 52 118 177 283 346 66 59 22 14 28 56 58 68 42 17 42 349 263 325 42 323 33 356 77 158 273 271 259 252 305 243 337 338 331 331 325 316 311
50 26 313 327 337 57 70 108 83 35 350 19 74 25 31 358 37 34 36 324 357 32 5 4 291 326 297 341 54 110 258 291 109 290 279 280 293 292 319 320 327 325 321 317 312
54 40 285 332 39 48 91 99 99 38 25 38 100 83 97 55 60 28 19 335 347 327 76 87 171 269 344 290 307 341 325 51 300 235 283 306 275 324 303 305 318 313 315 312 308
65 24 326 341 54 36 57 24 17 5 17 35 79 70 76 77 71 96 134 143 338 341 22 310 307 288 252 295 275 214 135 103 172 272 239 274 279 284 290 307 311 307 310 311 309
70 301 334 28 90 62 60 62 62 29 30 27 56 44 19 47 86 114 165 194 75 32 58 359 298 308 318 12 54 81 353 166 159 195 281 284 280 284 310 307 309 312 315 319 320
74 33 346 42 28 107 123 87 104 31 62 65 108 69 56 24 359 226 340 280 334 252 302 293 217 202 255 286 300 298 284 252 259 270 283 267 278 290 300 302 309 312 314 315 315
30 103 171 358 14 66 65 25 92 43 43 31 49 76 92 51 336 335 272 334 321 304 70 89 254 271 282 283 284 277 278 283 251 254 254 276 289 285 291 301 304 299 299 313 328
116 132 35 97 57 77 357 296 130 129 68 22 99 137 86 136 232 283 307 235 245 343 36 10 284 319 297 269 262 268 274 276 276 269 253 259 275 285 283 291 285 296 300 310 311
117 44 101 40 66 87 208 157 117 104 27 57 120 95 17 301 301 253 231 232 282 349 337 249 275 342 279 288 312 281 313 286 281 267 283 292 322 325 322 325 317 304 300 293 299